Вернуться в каталог

STARLINK-34928

АктивенСвязьSSO
NORAD 65195·PAYLOAD·🇺🇸 United States

Запущен Aug 14, 2025 с Vandenberg Space Force Base

Loading…

Ближайшие Пролёты (ближайшие 24 часа)

TLE

СвежийSource: CelesTrak SupGP

Эпоха: Sep 15, 2026, 03:53 UTC

1 65195C 25175X   26258.16229167  .00003557  00000+0  11036-3 0  2584
2 65195  97.2849 127.1551 0002245  96.4680 138.5229 15.33453766    19

Отслеживайте STARLINK-34928 в реальном времени с AllMySat

Download on the App Store